Regional Weather Roundup
Issued by NWS Upton, NY

Current Version | Previous Version | Text Only | Print | Product List | Glossary On
Versions: 1 2 3 4 5 6 7 8 9 10 11 12 13 14 15 16 17 18 19 20 21 22 23 24 25 26 27 28 29 30 31 32 33 34 35 36 37 38 39 40 41 42 43 44 45 46 47 48 49 50
000 ASUS41 KOKX 171905 RWROKX REGIONAL WEATHER ROUNDUP NATIONAL WEATHER SERVICE NEW YORK NY 200 PM EST WED DEC 17 2014 NOTE: "FAIR" INDICATES FEW OR NO CLOUDS BELOW 12,000 FEET WITH NO SIGNIFICANT WEATHER AND/OR OBSTRUCTIONS TO VISIBILITY. NYZ071-072-176-178-NJZ106-104-172000- NEW YORK CITY METRO AREA CITY SKY/WX TMP DP RH WIND PRES REMARKS CENTRAL PARK CLOUDY 52 37 56 W12G21 29.82S LAGUARDIA APRT CLOUDY 52 37 56 W13G22 29.80S KENNEDY INTL PTSUNNY 53 38 56 W16 29.81S NEWARK/LIBERTY PTSUNNY 52 37 56 W14 29.81S BRNX BOT. GARD N/A 52 36 54 NW10 29.80F TETERBORO CLOUDY 52 38 58 W12 29.80R $$ NYZ177-179-078>081-172000- LONG ISLAND NEW YORK CITY SKY/WX TMP DP RH WIND PRES REMARKS FARMINGDALE PTSUNNY 53 38 56 NW12G21 29.78F ISLIP CLOUDY 52 39 61 NW12 29.77R SHIRLEY CLOUDY 52 40 63 W13 29.78S WESTHAMPTON CLOUDY 52 41 66 W10 29.78S MONTAUK POINT N/A 49 42 77 W10 29.75F $$ NYZ052-065-067-172000- HUDSON VALLEY CITY SKY/WX TMP DP RH WIND PRES REMARKS WHITE PLAINS PTSUNNY 50 37 61 NW13 29.77F NEWBURGH PTSUNNY 48 39 71 NW14G23 29.79S MONTGOMERY CLOUDY 48 37 65 NW8 29.78R POUGHKEEPSIE CLOUDY 51 38 60 W9 29.77F ALBANY CLOUDY 40 38 93 CALM 29.79R FOG $$ NJZ001-105-106-008-010-013-015-019>022-104-172000- NEW JERSEY CITY SKY/WX TMP DP RH WIND PRES REMARKS NEWARK/LIBERTY PTSUNNY 52 37 56 W14 29.81S TETERBORO CLOUDY 52 38 58 W12 29.80R CALDWELL CLOUDY 50 36 58 NW14G22 29.82R MORRISTOWN PTSUNNY 54 39 58 MISG 29.82S SOMERVILLE CLOUDY 51 36 56 W7G18 29.82S SUSSEX CLOUDY 49 37 63 MISG 29.81S ANDOVER N/A 49 36 61 NW8 29.82S TRENTON CLOUDY 51 36 56 NW13G22 29.85S MILLVILLE CLOUDY 52 38 58 W16G24 29.89F ATLANTIC CITY PTSUNNY 52 38 58 W13G24 29.87S WRIGHTSTOWN CLOUDY 51 37 58 NW16G23 29.83S TOMS RIVER CLOUDY 52 37 58 W15G24 29.85R BELMAR CLOUDY 52 36 54 W16 29.83S $$ PAZ047>061-062-071-172000- EASTERN PENNSYLVANIA CITY SKY/WX TMP DP RH WIND PRES REMARKS PHILADELPHIA PTSUNNY 52 34 50 W23G30 29.90R ALLENTOWN CLOUDY 50 34 54 W12G24 29.86S SCRANTON CLOUDY 44 37 76 SW10 29.84S $$ CTZ002-004>006-009-010-012-RIZ004-006-007-MAZ004-011-015-172000- SOUTHERN NEW ENGLAND IN CT CITY SKY/WX TMP DP RH WIND PRES REMARKS BRADLEY INTL CLOUDY 50 39 66 NW16G22 29.74S HARTFORD CLOUDY 50 39 66 VRB7G18 29.76R DANBURY CLOUDY 49 36 61 W8 29.78S WTRBRY/OXFORD CLOUDY 46 37 71 NW3 29.76F BRIDGEPORT CLOUDY 53 41 63 W8 29.77S MERIDEN CLOUDY 50 39 66 NW8 29.76S NEW HAVEN CLOUDY 53 40 61 NW5 29.77S CHESTER FAIR 50 39 66 NW13 29.75S GROTON PTSUNNY 51 41 68 NW16 29.73F WILLIMANTIC CLOUDY 49 40 71 NW8 29.74F IN RI CITY SKY/WX TMP DP RH WIND PRES REMARKS PROVIDENCE PTSUNNY 51 41 68 NW16G22 29.71R BLOCK ISLAND PTSUNNY 48 43 81 W14 29.72S WESTERLY CLOUDY 50 41 71 NW6 29.73S IN MA CITY SKY/WX TMP DP RH WIND PRES REMARKS BOSTON CLOUDY 46 42 86 NW12 29.69S WORCESTER CLOUDY 43 40 89 NW13 29.71R WESTFIELD CLOUDY 49 39 68 NW13G23 29.75R PROVINCETOWN CLOUDY 45 39 81 NW18G24 29.67S NANTUCKET CLOUDY 47 43 86 W12 29.67S $$ ANZ330-335-338-340-345-350-353-355-172000- COASTAL MARINE OBSERVATIONS STATION/POSITION TIME SKY/WX TEMP WIND PRES VSBY WAVE AIR SEA DIR/SP/G HT/PER (UTC) (F) (DEG/KT/KT) (MB) (MI) (FT/S) NY HARB ENTRANCE 1900 49 46 270/ 16/ 17 1009.6 2/ 4 4S FIRE IS 1900 46 N/A 3/ 5 20S FIRE ISLAND 1800 51 50 1009.1 4/ 5 23SW MTP 1900 N/A 3/ 5 HUDSON CANYON 1900 51 56 290/ 19/ 23 1009.0 6/ 6 EXECUTION ROCKS 1900 50 42 290/ 12/ 16 N/A WESTERN LI SOUND 1900 49 310/ 8/ 8 N/A 1 CENTRAL LI SOUND 1800 46 45 260/ 10/ 12 N/A 2/ 3 EASTERN LI SOUND NOT AVBL ROBBINS REEF 1900 51 290/ 15/ 19 1008.1 $$ >>>>>>>>>>>>>>>>>>>>>>>>>>>> KEY <<<<<<<<<<<<<<<<<<<<<<<<<<< > < > SKY/WX - SKY CONDITION/PRESENT WEATHER < > TMP - TEMPERATURE IN FAHRENHEIT < > DP - DEWPOINT IN FAHRENHEIT < > RH - RELATIVE HUMIDITY IN PERCENT < > WIND - DIRECTION AND SPEED IN MPH < > PRES - MEAN SEA LEVEL PRESSURE IN INCHES OF HG < > WCI - WIND CHILL INDEX < > VSB - VISIBILITY IN MILES < > HX - HEAT INDEX < > TC - TEMPERATURE IN CELSIUS < > VRB - VARIABLE WIND DIRECTION < > < >>>>>>>>>>>>>>>>>>>>>>>>>>>> KEY <<<<<<<<<<<<<<<<<<<<<<<<<<<

USA.gov is the U.S. government's official web portal to all federal, state and local government web resources and services.